Location: Burleson Alternative School
(32.5290°N, 97.3406°W)
Time: 09:45:31
(UTC+00:00)

Vanguard 2 Rocket - Pass Details

Date: 10 November 2025
Orbit: 553 x 3287 km, 32.9° (Epoch: 07 December)

Event Time Altitude Azimuth Distance (km) Brightness Sun altitude
Rises 02:58:29 0° 265° (W) 3,051 10.4 -43.7°
Reaches altitude 10° 03:00:26 10° 265° (W) 2,298 9.5 -44.1°
Enters shadow 03:00:41 12° 265° (W) 2,204 9.4 -44.1°
